www.pogodaiklimat.ru
ПОГОДА на Базе ВВС Volkel

Архив погоды на Базе ВВС Volkel (Нидерланды)

Время
(UTC), дата
19 21.05
20 21.05
21 21.05
22 21.05
23 21.05
00 22.05
01 22.05
02 22.05
03 22.05
04 22.05
05 22.05
06 22.05
07 22.05
08 22.05
09 22.05
10 22.05
11 22.05
12 22.05
13 22.05
14 22.05
15 22.05
16 22.05
17 22.05
18 22.05
19 22.05
20 22.05
21 22.05
22 22.05
23 22.05
00 23.05
01 23.05
02 23.05
03 23.05
04 23.05
05 23.05
06 23.05
07 23.05
08 23.05
09 23.05
10 23.05
11 23.05
12 23.05
13 23.05
14 23.05
15 23.05
16 23.05
17 23.05
18 23.05
19 23.05
20 23.05
21 23.05
22 23.05
23 23.05
00 24.05
01 24.05
02 24.05
03 24.05
04 24.05
05 24.05
06 24.05
07 24.05
08 24.05
09 24.05
10 24.05
11 24.05
12 24.05
13 24.05
14 24.05
15 24.05
16 24.05
17 24.05
18 24.05
19 24.05
20 24.05
21 24.05
22 24.05
23 24.05
00 25.05
01 25.05
02 25.05
03 25.05
04 25.05
05 25.05
06 25.05
07 25.05
08 25.05
09 25.05
10 25.05
11 25.05
12 25.05
13 25.05
14 25.05
15 25.05
16 25.05
17 25.05
18 25.05
19 25.05
20 25.05
21 25.05
22 25.05
23 25.05
00 26.05
01 26.05
02 26.05
03 26.05
04 26.05
05 26.05
06 26.05
07 26.05
08 26.05
09 26.05
10 26.05
11 26.05
12 26.05
13 26.05
14 26.05
15 26.05
16 26.05
17 26.05
18 26.05
19 26.05
20 26.05
21 26.05
22 26.05
23 26.05
00 27.05
01 27.05
02 27.05
03 27.05
04 27.05
05 27.05
06 27.05
07 27.05
08 27.05
09 27.05
10 27.05
11 27.05
12 27.05
13 27.05
14 27.05
15 27.05
16 27.05
17 27.05
18 27.05
19 27.05
20 27.05
21 27.05
22 27.05
23 27.05
00 28.05
01 28.05
02 28.05
03 28.05
04 28.05
05 28.05
06 28.05
07 28.05
08 28.05
09 28.05
10 28.05
11 28.05
12 28.05
13 28.05
14 28.05
15 28.05
16 28.05
17 28.05
Ветер
(напр.,м/с)
Видим. Явления Облачность Т
(С)
Тd
(С)
f
(%)
Тe
(С)
Тes
(С)
Комфортность P
(гПа)
Po
(гПа)
Тmin
(С)
Tmax
(С)
R
(мм)
R24
(мм)
S
(см)
1-1 {2} 4300 м дождь 10/8 100 м +15.6 +15.1 97 +16 +16 1006.3 1003.9 3
СЗ 2-4 {5} 4300 м дождь 10/10 1500 м +15.1 +14.8 98 +15 +15 1006.4 1004.1 3
СЗ 2-4 {5} 4600 м слаб. дождь 10 баллов +14.7 +14.3 97 +14 +14 1005.6 1003.2 1
СЗ 2-4 {5} 2100 м дождь 10/10 100 м +14.9 +14.6 98 +15 +15 1004.8 1002.4 2
З 1-3 {4} 5000 м слаб. дождь 9/9 100 м +14.3 +13.9 97 +15 +15 1005.2 1002.7 1
ЮЗ 2-3 {5} 5000 м морось 10 баллов +14.3 +14.1 99 +14 +14 1005.0 1002.6 0.4
З 2-3 {4} 9000 м слаб. морось 10/8 200 м +14.2 +13.8 97 +14 +14 1004.7 1002.4 1
З 3-4 {5} 9000 м в посл. час дождь 10/6 300 м +14.1 +13.6 97 +13 +13 1004.7 1002.3
ЮЗ 4-6 {6} 7000 м дымка 9 баллов +14.2 +13.7 97 +13 +13 1004.7 1002.3
ЮЗ 4-5 {7} 3500 м дымка 10/6 300 м +14.0 +13.4 96 +12 +12 1005.0 1002.5
ЮЗ 5-7 {8} 2200 м в посл. час дождь 9/8 200 м +14.4 +13.6 95 +13 +13 1005.4 1002.9
ЮЗ 5-8 {9} 4400 м дымка 10 баллов +14.3 +13.0 92 +13 +13 1006.3 1003.7 +13.9 17.1
ЮЗ 4-6 {9} 5000 м в посл. час дождь 10/6 1000 м +15.0 +13.0 88 +14 +15 1006.9 1004.3
ЮЗ 6-8 {10} 10 км 10/10 600 м +15.6 +12.6 82 +14 +14 1007.3 1004.8
ЮЗ 6-9 {12} 23 км 10 баллов +16.0 +12.8 81 +15 +15 1008.0 1005.4
ЮЗ 7-10 {10} 11 км 10/6 300 м +15.0 +12.3 84 +13 +14 1008.7 1006.1
ЮЗ 7-10 {11} 17 км 10/8 600 м +15.6 +12.1 80 +14 +14 1009.1 1006.6
ЮЗ 7-10 {12} 29 км 10 баллов +16.7 +11.8 73 +15 +16 1009.2 1006.7
ЮЗ 6-8 {10} 30 км 10/8 600 м +17.3 +11.8 70 +16 +17 1009.7 1007.1
Ю 5-8 {8} 28 км в посл. час дождь 10/10 +18.7 +12.6 68 +19 +19 1009.9 1007.4
Ю 5-7 {10} 30 км 10 баллов +18.8 +11.7 63 +19 +20 1009.7 1007.2
Ю 3-5 {7} 40 км 10/10 1500 м +18.9 +12.5 66 +20 +20 1009.6 1007.1
ЮЗ 6-7 {9} 29 км в посл. час дождь 10/10 1500 м +17.3 +12.1 71 +16 +16 1009.8 1007.3
ЮЗ 4-7 {10} 40 км 9/5 +17.7 +11.5 67 +17 +18 1010.2 1007.6 +19.7
ЮЗ 3-4 {7} 40 км ясно +16.2 +12.0 76 +16 +16 1010.6 1008.1
Ю 2-3 {4} 35 км 6/6 1500 м +15.3 +12.2 82 +15 +15 1011.4 1008.9
Ю 2-3 {7} 30 км 4/4 1000 м +14.2 +12.0 87 +14 +14 1012.1 1009.5
Ю 2-2 {5} 30 км ясно +12.4 +10.9 91 +11 +11 1012.4 1009.9
ЮЗ 3-3 {3} 30 км ясно +11.0 +9.8 92 +9 +9 1012.6 1010.1
Ю 3-3 {7} 30 км ясно +12.0 +10.3 89 +10 +10 1012.7 1010.2
ЮЗ 2-4 {5} 23 км ясно +10.5 +9.4 93 +9 +9 1012.6 1010.1
ЮЗ 3-5 {5} 17 км ясно +11.6 +10.4 92 +10 +10 1012.7 1010.2
Ю 3-5 {5} 14 км ясно +11.3 +10.2 93 +9 +9 1012.9 1010.4
Ю 3-4 {5} 14 км 3/3 300 м +10.8 +10.0 95 +9 +9 1013.2 1010.7
ЮЗ 3-4 {6} 18 км 10/10 300 м +12.3 +10.8 91 +11 +11 1013.7 1011.2
ЮЗ 5-7 {7} 17 км 9 баллов +13.5 +11.3 87 +12 +12 1014.0 1011.5 +10.4 0.0
ЮЗ 5-7 {7} 23 км 10/10 600 м +14.4 +11.6 83 +13 +13 1014.3 1011.8
ЮЗ 5-7 {7} 25 км 10/10 600 м +14.9 +11.4 80 +13 +13 1014.7 1012.1
ЮЗ 5-7 {8} 25 км 10 баллов +15.9 +11.2 74 +15 +15 1015.0 1012.5
ЮЗ 4-5 {8} 24 км 10/10 600 м +16.6 +11.7 73 +16 +16 1015.2 1012.7
ЮЗ 5-7 {7} 23 км 10/10 1000 м +17.5 +11.7 69 +17 +17 1015.3 1012.8
ЮЗ 4-7 {8} 25 км 3 балла +19.5 +11.7 61 +21 +29 комфорт 1015.1 1012.6
ЮЗ 4-7 {7} 30 км 5/5 +20.3 +11.4 57 +22 +27 комфорт 1014.8 1012.3
ЮЗ 5-7 {8} 40 км 10/10 2000 м +19.6 +12.1 62 +21 +21 комфорт 1014.8 1012.3
ЮЗ 4-6 {8} 27 км 10/10 1000 м +19.6 +11.2 58 +21 +21 комфорт 1015.0 1012.5
З 2-6 {7} 35 км 10/10 +19.3 +10.0 55 +21 +21 комфорт 1015.1 1012.7
З 3-5 {6} 35 км 3/3 +18.4 +9.4 56 +19 +21 1015.4 1012.9
З 1-2 {8} 35 км ясно +18.4 +11.5 64 +20 +21 1015.6 1013.1 +20.8
З 2-4 {4} 35 км 8/6 +17.5 +11.4 67 +18 +18 1016.1 1013.5
СЗ 1-1 {3} 30 км 10/10 2000 м +15.2 +12.3 83 +16 +16 1016.8 1014.3
штиль 0-1 {4} 27 км 8 баллов +14.3 +12.3 88 +14 +14 1017.1 1014.6
штиль 0 {1} 17 км ясно +12.2 +11.9 98 +12 +12 1017.4 1014.9
СВ 1-1 {1} 7000 м дымка 10/10 +11.6 +11.4 99 +11 +11 1017.4 1014.9
штиль 0 {4} 9000 м в посл. час туман 10 баллов +11.6 +11.5 99 +11 +11 1017.6 1015.1
В 1-2 {2} 5000 м дымка 10/10 +11.0 +10.9 99 +11 +11 1017.7 1015.2
штиль 0-1 {1} 6000 м дымка 9/9 +10.8 +10.6 99 +10 +10 1017.5 1015.0
С 1-1 {2} 6000 м дымка 10 баллов +11.0 +10.6 97 +11 +11 1017.5 1015.1
СВ 1-1 {1} 3900 м дымка 10/10 +11.9 +11.7 99 +12 +12 1017.7 1015.2
С 1-2 {2} 4100 м дымка 10/10 2000 м +12.9 +12.4 97 +13 +13 1017.9 1015.3
С 2-2 {4} 6000 м дымка 10 баллов +14.2 +13.4 95 +14 +14 1018.2 1015.7 +10.3
С 1-2 {2} 7000 м дымка 10/10 +14.8 +13.4 91 +15 +15 1018.4 1016.0
С 1-2 {2} 7000 м слаб. морось с дождем 10/10 1500 м +15.5 +13.7 89 +16 +16 1018.6 1016.1
С 1-1 {2} 7000 м морось с дождем 10 баллов +16.2 +13.9 86 +17 +17 1019.0 1016.4 0.1
Ю 3-4 {6} 2700 м сильн. дождь 10/8 1000 м +14.2 +13.7 97 +13 +14 1019.5 1017.1 8
З 2-3 {3} 4600 м слаб. дождь 10/8 1000 м +14.7 +14.1 96 +14 +16 1019.3 1016.9 2
З 2-3 {6} 4600 м дождь 10 баллов +14.5 +13.7 95 +14 +16 1019.0 1016.5 2
СЗ 2-4 {5} 6000 м морось 10/10 1500 м +15.0 +14.2 95 +15 +15 1018.2 1015.7 0.3
СЗ 1-2 {4} 9000 м слаб. ливневой дождь 10/10 1500 м +15.0 +14.1 94 +15 +15 1018.3 1015.8
СЗ 2-3 {5} 8000 м слаб. ливневой дождь 10 баллов +15.1 +14.2 94 +15 +15 1018.0 1015.6
СЗ 3-5 {5} 4000 м морось с дождем 10/10 200 м +15.3 +14.5 95 +15 +15 1017.8 1015.4 0.1
СЗ 3-6 {7} 5000 м в посл. час дождь 10/10 1500 м +14.9 +14.2 96 +14 +14 1017.6 1015.1 0.2
С 3-4 {7} 2300 м ливневой дождь 10 баллов +15.0 +14.6 97 +14 +14 1017.6 1015.2 +16.3 2
С 2-3 {8} 11 км в посл. час дождь 10/10 1500 м +14.6 +13.8 95 +14 +14 1017.2 1014.8 1
С 2-3 {4} 7000 м дымка 10/10 +14.3 +13.8 97 +14 +14 1017.1 1014.6
С 2-3 {8} 4400 м дымка 10 баллов +14.4 +14.0 97 +14 +14 1017.4 1014.9
С 1-2 {3} 3900 м морось 10/10 300 м +14.5 +14.1 97 +15 +15 1017.1 1014.6 0.2
СВ 2-3 {3} 5000 м слаб. ливневой дождь 10/10 300 м +14.4 +14.0 97 +14 +14 1016.9 1014.5 0.1
СВ 3-4 {8} 4300 м слаб. ливневой дождь 10 баллов +14.2 +13.8 97 +13 +13 1016.7 1014.3 0.3
СВ 3-4 {5} 4600 м дождь 10/6 600 м +14.0 +13.7 98 +13 +13 1016.4 1013.9 2
С 2-3 {4} 3200 м дождь 10/10 1500 м +13.9 +13.7 99 +13 +13 1016.0 1013.5 2
СВ 2-3 {5} 3400 м морось с дождем 9 баллов +14.1 +13.6 97 +13 +13 1015.6 1013.1 1
СВ 1-1 {3} 2300 м слаб. дождь 9/9 200 м +14.1 +13.9 99 +14 +14 1015.5 1013.0 2
Ю 1-1 {2} 3000 м в посл. час дождь 10/9 300 м +14.3 +14.0 98 +15 +15 1015.4 1012.9
ЮВ 2-2 {5} 3500 м дымка 10 баллов +14.3 +13.4 94 +14 +14 1015.4 1012.8 +13.9 21.8
ЮВ 1-2 {3} 5000 м дымка 10/10 300 м +15.3 +13.6 90 +16 +16 1015.5 1013.0
ЮВ 1-2 {3} 14 км 9/9 600 м +17.0 +12.6 75 +18 +19 1015.5 1013.0
Ю 4-6 {6} 8000 м дымка 10/10 200 м +15.0 +13.6 91 +14 +15 1015.9 1013.4
Ю 3-5 {5} 7000 м слаб. ливневой дождь 10/10 300 м +15.0 +13.7 92 +14 +14 1016.3 1013.8
Ю 5-7 {7} 10 км в посл. час дождь 10/8 300 м +15.7 +14.0 90 +14 +15 1016.4 1013.9
Ю 4-7 {7} 17 км в посл. час дождь 10 баллов +16.3 +14.2 87 +16 +18 1016.4 1013.9
ЮЗ 4-6 {9} 45 км 10/10 1500 м +17.3 +13.1 76 +17 +17 1016.6 1014.1
Ю 4-5 {8} 14 км в посл. час дождь 10/9 600 м +15.6 +13.9 90 +15 +15 1016.8 1014.3 0.2
З 2-4 {9} 25 км слаб. ливневой дождь 10 баллов +14.9 +13.6 92 +15 +16 1017.0 1014.5 0.1
ЮВ 1-2 {3} 30 км в посл. час дождь 8/6 600 м +16.7 +14.5 87 +18 +20 1016.7 1014.2 0.3
З 3-5 {5} 35 км в посл. час дождь 3/1 300 м +17.1 +13.0 77 +17 +19 1016.8 1014.3 1
З 3-5 {9} 45 км ясно +17.7 +13.3 75 +18 +19 1017.0 1014.5 +18.4
З 2-2 {4} 45 км 1/1 +15.5 +12.0 80 +15 +16 1017.3 1014.7
СВ 1-1 {3} 40 км ясно +12.5 +12.1 97 +12 +12 1017.4 1014.8
штиль 0 {5} 1400 м дымка ясно +11.7 +11.6 99 +11 +11 1017.5 1015.0
В 1-1 {1} 5000 м дымка ясно +10.8 +10.7 99 +10 +10 1017.7 1015.2
В 1-2 {2} 1200 м в посл. час туман ясно +10.6 +10.6 100 +10 +10 1017.6 1015.1
В 2-2 {5} 3500 м дымка 8 баллов +10.5 +10.4 99 +9 +9 1017.4 1015.0
СВ 2-2 {3} 500 м туман 10/10 +11.1 +10.9 99 +10 +10 1017.1 1014.6
В 2-3 {3} 600 м туман 10/10 +9.5 +9.4 99 +8 +8 1016.9 1014.4
В 2-3 {3} 4300 м в посл. час туман 10 баллов +10.8 +10.7 99 +9 +9 1016.5 1014.1
В 2-2 {3} 4100 м дымка 10/10 +10.7 +10.6 99 +9 +9 1016.1 1013.6
В 2-3 {3} 5000 м дымка 8/8 +12.7 +12.2 97 +12 +12 1016.4 1013.8
В 3-4 {4} 8000 м дымка 10 баллов +14.9 +13.2 90 +14 +14 1016.0 1013.5 +9.2 1.6
ЮВ 4-5 {5} 13 км 10/10 +17.4 +13.5 78 +17 +17 1015.7 1013.2
В 4-6 {6} 18 км 10/10 +18.6 +13.7 73 +19 +19 1015.4 1012.9
ЮВ 4-5 {6} 18 км 10/10 +19.2 +14.2 73 +21 +21 комфорт 1015.2 1012.8
В 4-6 {6} 35 км 10/10 +19.9 +14.2 70 +22 +22 комфорт 1014.9 1012.4
ЮВ 4-6 {6} 35 км 10/10 +20.5 +13.2 63 +23 +23 комфорт 1014.8 1012.3
ЮВ 4-5 {7} 35 км слаб. ливневой дождь 10 баллов +21.1 +13.7 63 +24 +24 комфорт 1014.3 1011.9
ЮВ 5-7 {7} 40 км в посл. час дождь 9/9 +21.5 +13.9 62 +24 +25 комфорт 1013.6 1011.1
ЮВ 3-5 {7} 30 км 10/10 2000 м +21.8 +13.2 58 +24 +24 комфорт 1012.9 1010.5
Ю 5-9 {9} 30 км слаб. ливневой дождь 10 баллов +21.3 +12.9 59 +24 +24 комфорт 1012.5 1010.0 0.1
В 1-1 {8} 40 км в посл. час дождь 9/9 +18.1 +15.1 83 +19 +20 1012.3 1009.8 0.8
ЮВ 3-4 {12} 30 км слаб. ливневой дождь 10/10 1500 м +14.6 +13.3 92 +14 +14 1014.3 1011.8 0.8
ЮЗ 3-4 {12} 45 км в посл. час дождь 10 баллов +14.6 +13.4 93 +14 +14 1014.2 1011.7 +22.7 0.2
ЮЗ 3-5 {5} 30 км 8/8 +14.9 +13.8 93 +14 +14 1014.8 1012.2
Ю 1-2 {4} 23 км 10/10 +14.1 +13.6 97 +14 +14 1015.2 1012.7
ЮЗ 1-2 {5} 17 км 9/9 +13.7 +13.4 98 +14 +14 1015.3 1012.8
ЮЗ 1-2 {2} 10 км 10/10 +12.7 +12.6 99 +13 +13 1015.6 1013.1
ЮЗ 1-2 {4} 18 км 10/10 +13.0 +12.9 99 +13 +13 1015.8 1013.3
Ю 2-3 {5} 8000 м дымка 10 баллов +12.8 +12.7 99 +12 +12 1015.9 1013.4
ЮЗ 2-3 {3} 9000 м дымка 10/10 +13.3 +13.1 99 +12 +12 1015.9 1013.4
Ю 2-3 {3} 10 км слаб. морось 10/10 +13.4 +13.1 98 +13 +13 1016.1 1013.6
Ю 3-3 {4} 13 км ливневой дождь 10 баллов +13.5 +13.1 97 +12 +12 1016.4 1013.9
ЮЗ 3-5 {5} 27 км в посл. час осадки 10/10 1500 м +13.2 +11.9 92 +12 +12 1016.5 1014.0
ЮЗ 3-4 {5} 25 км 9/9 +12.7 +11.1 90 +11 +11 1016.8 1014.3
ЮЗ 4-6 {6} 25 км 8/8 +13.9 +11.2 84 +12 +13 1017.2 1014.6 +11.8 1.9
З 5-7 {8} 30 км 10/10 +15.3 +10.5 73 +14 +14 1017.5 1014.9
ЮЗ 5-7 {7} 35 км 10/10 +15.8 +10.1 69 +15 +15 1017.6 1015.1
ЮЗ 4-7 {8} 27 км 10/10 600 м +16.9 +9.3 61 +16 +16 1017.7 1015.2
ЮЗ 3-5 {6} 30 км 9/9 +17.5 +9.6 60 +18 +19 1017.5 1015.0
Ю 3-5 {6} 25 км 9/6 1500 м +18.5 +10.8 61 +19 +23 1017.3 1014.8
ЮЗ 4-6 {8} 30 км 10 баллов +17.9 +9.1 56 +18 +18 1017.0 1014.5
З 3-5 {6} 40 км 10/10 2000 м +16.7 +9.5 62 +17 +17 1016.9 1014.4
З 4-5 {5} 40 км в посл. час дождь 10/10 1500 м +17.6 +9.6 59 +17 +17 1016.7 1014.2
З 2-5 {6} 35 км 10 баллов +17.3 +9.2 59 +18 +18 1016.3 1013.9
З 4-6 {6} 28 км слаб. морось 10/10 1500 м +15.6 +9.0 65 +15 +15 1016.5 1014.0
З 2-3 {6} 18 км слаб. ливневой дождь 9/9 1500 м +13.5 +11.5 88 +13 +13 1016.5 1014.0 0.6
Ю 1-1 {6} 9000 м слаб. дождь 8 баллов +13.3 +12.1 92 +13 +14 1016.8 1014.3 +19.4 0.4
СЗ 1-2 {2} 18 км слаб. морось 9/9 2000 м +13.1 +12.3 95 +13 +13 1016.9 1014.4 0.5
ЮЗ 2-2 {2} 11 км слаб. дождь 8/8 1500 м +12.6 +12.3 98 +12 +12 1017.4 1014.8
штиль 0-1 {3} 17 км в посл. час дождь 10 баллов +12.8 +12.3 97 +12 +12 1017.5 1015.0
З 3-5 {5} 8000 м ливневой дождь 10/10 1000 м +12.6 +11.7 94 +11 +11 1017.8 1015.3 0.7
ЮЗ 4-5 {5} 8000 м сильн. морось 9/9 1500 м +12.1 +11.6 97 +10 +10 1017.8 1015.3 0.3
ЮЗ 3-5 {7} 16 км в посл. час дождь 10 баллов +11.0 +10.5 97 +9 +9 1018.0 1015.4 0.4
ЮЗ 2-3 {4} 14 км 3/1 600 м +9.6 +9.3 98 +8 +8 1017.9 1015.4
ЮЗ 3-5 {5} 20 км в посл. час дождь ясно +9.9 +9.2 95 +8 +8 1018.0 1015.5
ЮЗ 2-4 {5} 16 км ясно +8.5 +8.1 97 +6 +6 1017.9 1015.4
Ю 2-2 {4} 15 км ясно +8.3 +8.0 98 +6 +6 1018.0 1015.5
ЮЗ 4-5 {5} 19 км ясно +10.0 +9.0 93 +7 +8 1018.2 1015.7
ЮЗ 4-6 {6} 23 км ясно +11.5 +9.8 89 +9 +11 1018.3 1015.8 +8.0 3.0
ЮЗ 5-7 {7} 23 км 5/4 300 м +13.2 +10.5 84 +11 +13 1018.4 1015.8
ЮЗ 5-7 {7} 30 км 4/4 600 м +14.4 +10.3 76 +13 +16 1018.3 1015.9
ЮЗ 5-7 {8} 30 км 3 балла +14.6 +9.3 70 +13 +18 1018.4 1015.9
ЮЗ 5-7 {8} 30 км 6/6 1500 м +16.1 +9.2 64 +15 +18 1018.1 1015.6
ЮЗ 4-8 {9} 35 км 9/9 1500 м +17.3 +9.5 60 +17 +18 1017.6 1015.1
ЮЗ 4-6 {9} 28 км 8 баллов +18.1 +9.6 58 +18 +20 1016.9 1014.5
Ю 5-7 {8} 40 км 10/10 +19.0 +9.8 55 +19 +19 1016.3 1013.8
Ю 5-7 {9} 30 км 10/9 +18.8 +10.3 58 +19 +19 1015.8 1013.4
ЮЗ 4-6 {9} 30 км слаб. ливневой дождь 10 баллов +15.5 +12.4 82 +15 +15 1015.8 1013.2 0.5
Ю 5-7 {10} 16 км слаб. дождь 10/10 1500 м +14.6 +12.9 90 +13 +13 1015.4 1013.0 0.9
Ю 5-7 {10} 30 км слаб. дождь 10/10 600 м +14.1 +12.6 91 +12 +12 1014.9 1012.4 0.2
Местоположение метеостанции База ВВС Volkel (Нидерланды): широта 51.65 долгота 5.70 высота над уровнем моря 21 м.
В архиве по умолчанию представлена погода на Базе ВВС Volkel за последнюю неделю. Архивные данные за месяц целиком и за предыдущие месяцы, начиная с января 2011 года, Вы можете получить, выбрав интересующий диапазон дат из раскрывающегося списка и нажав кнопку "Найти!".
*Определитесь, кто Вы:
Внимание! Время в таблицах - всемирное. Для получения местного времени необходимо прибавить поправку, которая равна 1 ч.
Некоторые строки с данными для отдельных станций могут быть выделены курсивом. Это означает, что фактические данные отсутствуют по различным причинам, а приведенные значения являются расчетными модельными данными для данного пункта наблюдений.
Смотрите также архив погоды в соседних городах и на ближайших метеорологических станциях:
Партнеры нашего сайта:      
Пояснения к столбцам:
  • Ветер - указаны скорость ветра в м/с - средняя за 10 мин, порывы в срок и между сроками (в фигурных скобках) и направление, откуда дует ветер: С - северный,
  • СВ - северо-восточный, В - восточный, ЮВ - юго-восточный, Ю - южный, ЮЗ - юго-западный, З - западный, СЗ - северо-западный.
  • Видимость - горизонтальная дальность видимости в метрах или километрах. При видимости от 1 до 10 км при отсутствии осадков обычно наблюдается дымка, при ухудшении видимости до 1 км и менее - туман. В сухую погоду видимость может ухудшаться дымом, пылью или мглою.
  • Явления - указаны атмосферные явления, наблюдавшиеся в срок или в последний час перед сроком; фигурными скобками обозначены явления, наблюдавшиеся между сроками (за 1-3 часа до срока); квадратными скобками обозначены град или гололедные отложения с указанием их диаметра в мм.
  • Облачность - указаны через наклонную черту общая и нижняя облачность в баллах и высота нижней границы облаков в метрах; квадратными скобками обозначены формы облаков: Ci - перистые, Cs - перисто-слоистые, Cc - перисто-кучевые, Ac - высококучевые, As - высокослоистые, Sc - слоисто-кучевые, Ns - слоисто-дождевые, Cu - кучевые, Cb - кучево-дождевые. Подробнее классификацию облаков см. в Атласе облаков (PDF).
  • T - Температура воздуха - температура, измеренная на высоте 2 м над землей.
  • Td - Температура точки росы - температура, при понижении до которой содержащийся в воздухе водяной пар достигнет насыщения.
  • f - Относительная влажность воздуха - влажноcть воздуха, измеренная на высоте 2 м над землей.
  • Te - Эффективная температура - температура, которую ощущает одетый по сезону человек в тени. Характеристика душности погоды. При расчете учитывается влияние влажности воздуха и скорости ветра на теплоощущения человека.
  • Tes - Эффективная температура на солнце - температура, которую ощущает человек, с поправкой на солнечный нагрев. Характеристика знойности погоды. Зависит от высоты солнца над горизонтом, облачности и скорости ветра. Ночью, в пасмурную погоду, а также при ветре 12 м/с и более поправка равна нулю.
  • P - Атмосферное давление - приведенное к уровню моря атмосферное давление.
  • Po - Атмосферное давление - измеренное на уровне метеостанции атмосферное давление.
  • Tmin - Минимальная температура - минимум температуры воздуха на высоте 2 м над землей.
  • Tmax - Максимальная температура - максимум температуры воздуха на высоте 2 м над землей.
  • R - Количество осадков - Количество выпавших осадков за период времени, мм. При наведении курсора мыши на число - период времени, за который выпало указанное количество осадков.
  • R24 - Количество осадков - Количество выпавших осадков за 24 часа, мм.
  • S - Снежный покров - Высота снежного покрова, см. При наведении курсора мыши на число - состояние снежного покрова и степень покрытия местности в баллах.